Location: SE Lincoln, NE
(40.7805°N, 96.6275°W)
Time: 07:21:14
(UTC-05:00)

ATLAS 2AS CENTAUR R/B - Pass Details

Date: 15 May 2021
Orbit: 949 x 1263 km, 63.7° (Epoch: 07 May)

Event Time Altitude Azimuth Distance (km) Brightness Sun altitude
Rises 22:26:28 0° 327° (NNW) 4,091 7.4 -17.4°
Reaches altitude 10° 22:29:24 10° 332° (NNW) 3,082 6.3 -17.8°
Maximum altitude 22:36:34 54° 49° (NE) 1,313 3.1 -18.7°
Enters shadow 22:40:12 28° 114° (ESE) 1,900 3.5 -19.2°
